Location: Monfort
(47.1967°N, 0.2115°W)
Time: 11:37:57
(UTC+00:00)

CSL-04 Debris - Pass Details

Date: 24 October 2020
Orbit: 827 x 848 km, 98.9° (Epoch: 27 November)

Event Time Altitude Azimuth Distance (km) Brightness Sun altitude
Rises 18:54:49 0° 165° (SSE) 3,367 7.1 -20.7°
Reaches altitude 10° 18:57:09 10° 166° (SSE) 2,440 6.4 -21.1°
Maximum altitude 19:02:34 83° 255° (WSW) 851 4.2 -22.0°
Drops below altitude 10° 19:08:05 10° 344° (NNW) 2,472 6.9 -22.9°
Sets 19:10:28 0° 345° (NNW) 3,414 7.6 -23.3°
